Theta_e
294 295 297 298 298 298 298 296 297 297 298 297 294 297 297 298 298 299 300 299 299 299 299 298 298 297 298 297 298 299 299 300 301 302 301 302 303 302 301 303 305 307 310 310
293 294 296 298 298 297 297 296 296 297 297 298 297 297 297 298 299 299 299 299 300 300 300 300 298 298 298 298 299 300 300 300 301 301 300 301 302 303 307 307 307 307 309 311
295 297 297 298 297 297 297 296 295 297 297 294 296 297 298 298 298 299 297 299 299 298 300 300 300 300 299 299 299 300 298 300 300 300 300 299 299 299 299 304 303 303 301 300
296 297 297 297 298 299 297 295 293 293 295 296 296 296 297 298 298 297 297 299 299 298 300 300 300 300 300 299 299 298 298 301 301 300 299 299 298 297 297 298 298 298 299 300
297 297 297 297 298 298 297 296 295 295 294 294 296 296 297 297 297 297 299 299 298 297 299 299 300 299 299 299 299 299 299 302 302 302 302 299 298 298 296 295 296 296 296 296
295 295 296 296 297 297 296 296 297 297 295 295 297 297 297 297 296 297 297 298 298 298 299 297 297 298 298 298 299 298 300 302 304 302 300 299 297 297 297 295 295 296 296 296
295 296 296 296 296 296 297 297 297 297 297 296 297 296 296 297 297 298 298 297 297 298 297 298 297 298 298 298 298 297 300 301 298 300 301 298 296 296 297 297 293 295 296 296
294 295 296 297 297 297 298 298 298 298 296 295 297 296 296 296 296 297 296 297 297 296 297 298 297 297 298 298 299 298 298 298 298 299 298 298 296 295 296 296 293 294 295 295
294 295 295 296 297 297 298 298 298 298 297 297 295 296 296 296 297 297 296 296 297 296 296 298 298 298 297 297 298 297 298 298 298 297 295 296 295 295 294 297 293 294 294 294
294 296 297 297 297 298 297 297 297 298 298 297 297 297 297 296 295 295 294 295 296 296 297 297 298 297 296 297 296 296 297 297 297 296 295 293 295 295 293 293 292 294 294 293
294 294 295 295 297 297 296 297 297 297 298 297 297 297 296 297 296 297 296 295 296 296 297 297 296 296 295 296 295 295 295 296 295 294 293 293 295 294 294 294 294 293 293 293
293 294 294 297 298 297 296 297 298 298 298 297 296 295 295 296 296 296 295 295 294 293 295 295 297 296 296 295 296 295 295 295 295 295 295 295 295 294 293 293 293 293 293 293
292 294 294 295 296 296 296 297 297 297 297 297 296 296 296 296 296 296 295 295 295 295 294 294 295 296 294 295 296 295 296 295 296 295 296 295 295 295 294 293 293 293 293 292
291 292 295 296 297 297 297 296 297 296 297 297 297 295 295 296 296 295 295 295 295 295 295 294 296 297 295 296 296 296 295 295 296 296 296 295 296 296 295 294 294 293 293 292
291 293 295 296 295 296 295 295 296 295 296 298 297 297 295 295 295 295 295 294 295 295 295 295 296 294 295 294 295 297 294 296 296 296 295 295 295 295 295 295 294 294 293 292
291 292 295 295 295 295 296 296 297 297 297 296 297 297 297 295 295 295 294 294 294 295 294 293 294 294 294 297 295 295 295 295 295 296 295 295 295 295 295 295 295 294 294 293
291 291 292 293 294 295 292 295 296 296 296 296 296 296 297 297 296 296 296 296 295 294 294 294 294 294 295 296 296 295 295 295 295 295 294 295 295 295 295 295 295 295 294 294
291 291 291 292 294 294 292 294 296 296 296 296 294 296 296 297 296 296 297 297 296 295 294 293 293 293 293 295 295 295 295 295 295 295 294 294 295 295 295 295 295 295 295 294
291 291 291 291 291 291 292 293 294 294 294 296 295 296 297 296 296 296 296 297 298 295 295 294 293 293 294 294 294 295 295 295 294 295 294 295 295 295 295 295 295 295 295 295
291 291 291 291 291 291 291 291 291 292 293 297 296 294 296 296 297 295 294 296 295 298 295 293 296 297 293 294 295 295 295 294 295 294 295 295 295 295 295 295 295 295 295 295
290 290 290 291 291 291 291 290 292 291 292 296 295 295 294 296 297 296 294 295 294 296 297 296 296 297 295 294 294 294 294 294 295 295 295 295 295 295 295 294 294 295 295 295
290 291 291 290 291 290 289 287 291 292 292 294 295 295 294 294 296 297 294 296 294 296 293 296 296 296 296 295 294 294 295 295 295 295 295 295 295 294 295 294 294 294 295 295
291 291 291 291 290 288 289 287 292 293 292 294 294 294 294 294 295 294 294 295 295 291 295 296 296 295 296 296 295 294 295 295 295 296 295 294 295 295 295 294 294 294 293 294
292 292 288 290 290 291 290 291 292 293 294 294 295 294 296 294 294 293 294 293 293 293 294 295 296 295 297 296 295 295 295 295 295 296 294 295 295 295 295 295 294 293 292 293
293 291 290 290 291 292 292 291 293 294 295 295 295 295 295 294 294 293 294 293 293 294 295 294 295 296 297 296 295 295 295 295 295 295 294 295 295 295 295 294 295 294 294 292
294 294 294 293 293 292 293 292 294 295 294 295 296 294 294 295 295 295 293 294 294 295 293 294 296 296 296 296 296 296 296 295 295 295 295 295 295 295 295 294 294 295 294 294
294 294 295 294 294 294 294 294 295 295 295 296 295 294 295 293 295 295 295 295 295 294 294 295 296 297 296 296 296 296 296 295 295 295 295 295 295 295 295 295 295 295 295 295
Wind_Speed
8 6 3 2 2 3 2 3 4 14 14 9 5 3 1 1 5 4 2 0 1 3 5 5 3 5 6 16 16 12 3 4 6 4 17 10 6 6 11 6 7 2 2 4
9 6 1 4 5 4 3 5 5 19 5 4 2 2 2 1 4 4 4 2 1 2 4 4 4 6 8 13 11 10 10 7 5 5 9 16 10 12 3 9 7 4 1 4
11 8 3 7 9 0 4 4 3 11 19 8 3 2 4 3 4 1 4 2 1 4 2 3 5 5 5 12 11 14 11 16 18 13 8 9 14 29 26 10 6 6 8 14
11 11 10 6 6 2 1 4 4 3 3 7 8 2 2 4 5 4 9 1 6 3 3 5 9 9 10 7 15 6 2 2 14 19 14 21 27 29 29 27 15 10 12 10
12 10 7 5 5 5 1 5 7 9 5 4 4 8 5 5 4 2 4 6 11 2 2 2 5 8 11 7 14 7 3 3 2 6 6 14 28 25 27 25 23 16 12 9
13 13 10 6 5 7 5 16 17 8 7 3 2 3 3 3 5 4 7 7 4 4 1 11 11 6 3 7 9 7 4 4 4 3 12 8 22 24 16 21 21 15 16 18
13 15 15 15 9 6 16 19 17 11 3 3 2 5 3 4 5 3 7 8 2 6 17 2 5 3 5 9 19 20 5 2 3 4 6 10 6 15 9 10 20 21 18 19
14 14 16 16 17 14 16 19 18 9 3 1 7 11 9 5 6 2 3 8 11 8 3 2 3 4 4 6 12 19 17 2 6 4 11 3 19 23 10 4 17 21 19 24
16 15 14 15 12 10 16 26 24 12 8 7 4 5 10 4 6 6 4 13 17 6 4 4 4 6 5 7 14 19 17 18 6 7 7 11 13 24 33 9 14 32 31 27
16 17 21 18 14 13 16 29 25 18 17 14 14 9 6 8 5 2 5 11 13 13 4 5 6 5 4 6 7 7 8 6 15 11 7 5 12 24 20 18 8 30 29 28
16 18 16 12 15 10 16 34 33 34 29 22 22 23 21 15 8 4 8 1 7 5 5 3 3 5 4 2 5 4 8 4 5 5 6 7 19 11 10 7 14 20 23 25
11 10 12 16 23 22 12 25 26 27 25 23 25 24 27 28 20 9 14 4 0 4 3 2 3 6 4 5 4 9 7 6 4 4 4 2 9 7 13 14 13 19 22 25
11 11 12 17 13 10 19 27 27 23 20 26 28 23 17 18 23 19 8 9 8 9 7 4 3 7 1 3 6 5 6 9 3 2 4 5 9 12 17 21 22 21 21 23
12 13 14 17 20 17 17 8 14 9 8 6 15 21 23 20 14 20 21 20 22 22 19 10 3 4 6 4 5 4 2 4 4 5 4 3 10 12 14 19 23 28 28 28
12 14 16 18 9 6 8 7 10 4 4 7 12 17 19 21 18 16 17 21 22 22 14 8 4 4 4 3 2 6 5 2 3 4 3 2 9 12 12 16 21 24 29 32
12 13 14 13 12 12 13 7 14 20 17 4 3 8 12 10 12 15 20 25 22 13 5 4 5 4 1 2 4 4 5 4 3 3 8 8 11 11 13 14 19 21 25 28
13 12 12 12 11 11 1 3 15 6 4 3 3 3 3 4 5 8 8 8 6 5 8 6 5 7 5 2 2 1 4 5 6 8 8 7 9 11 12 12 13 15 20 25
12 11 11 10 9 7 2 6 11 8 4 3 4 1 3 1 1 1 6 4 3 6 4 3 2 2 2 1 2 1 1 3 4 6 7 8 9 9 10 11 12 14 17 21
12 11 11 9 5 3 4 8 8 5 1 4 2 3 3 3 2 2 2 2 2 2 2 2 1 1 2 6 7 5 3 1 3 5 9 10 11 11 11 14 15 14 15 18
15 13 4 4 6 6 7 3 3 4 3 2 3 4 1 3 3 2 2 3 1 1 1 1 0 1 5 14 11 8 6 2 1 2 5 7 9 11 12 13 13 12 11 14
13 5 3 6 9 6 3 2 1 1 1 4 4 5 5 2 1 2 2 1 1 0 1 1 1 2 8 16 14 12 10 6 4 1 4 4 8 8 8 12 11 12 12 11
10 6 8 7 4 2 2 0 1 2 2 6 6 6 5 4 3 2 1 1 0 1 2 0 2 3 10 20 17 13 11 8 7 3 3 4 6 8 7 11 9 13 12 11
12 4 3 3 2 3 5 5 2 2 6 9 9 6 4 4 2 4 1 1 2 0 1 2 4 8 13 16 17 14 12 11 8 6 3 4 6 7 8 10 10 11 11 10
4 6 1 3 2 4 4 3 3 4 6 15 16 8 3 3 3 2 2 1 0 1 2 5 4 17 14 14 16 15 13 12 10 7 4 4 6 8 7 8 10 12 12 9
4 5 4 5 4 3 5 7 4 6 13 21 11 6 4 2 3 1 2 1 3 4 4 3 9 18 15 15 15 15 13 10 10 8 5 4 8 8 7 6 8 11 13 12
4 5 3 4 3 5 7 11 8 12 22 14 4 4 2 2 3 3 6 3 5 3 5 6 14 16 14 13 13 11 10 9 9 8 7 8 10 9 8 6 6 9 12 13
5 5 11 9 3 6 10 12 9 18 22 5 4 4 4 5 2 3 4 5 2 6 7 10 13 14 13 11 10 10 10 9 8 8 10 10 10 11 10 8 6 9 11 14
Wind_Direction
30 31 137 152 99 87 66 63 51 357 27 53 44 62 66 10 349 11 38 350 281 273 296 288 299 289 303 327 329 309 254 280 302 347 37 29 69 171 181 205 244 295 5 107
26 27 75 155 155 91 35 78 44 31 81 88 55 64 48 73 8 350 3 340 212 318 304 309 311 306 298 327 347 333 340 327 327 10 16 17 40 26 221 265 263 247 209 93
39 42 56 170 161 75 20 96 48 39 55 70 88 85 21 9 342 2 8 268 7 327 299 236 300 302 316 331 346 5 353 78 68 64 50 50 54 43 44 52 41 343 46 330
53 57 54 129 188 230 44 73 80 64 24 34 56 73 15 8 5 8 3 25 10 280 298 342 15 357 343 354 356 14 53 73 89 104 73 62 66 50 39 45 35 37 348 350
45 37 54 100 160 170 42 109 129 89 72 35 38 17 17 360 335 288 339 341 335 267 268 32 313 353 19 28 329 353 3 354 177 6 320 43 50 40 50 35 25 19 21 359
50 45 52 66 130 159 106 115 115 102 24 19 63 3 306 293 329 243 261 307 313 284 269 299 283 268 321 333 339 333 318 342 354 6 347 359 28 14 28 30 13 0 15 340
66 64 66 71 84 124 138 120 110 93 62 71 65 351 324 291 306 253 310 334 253 301 311 133 105 123 241 12 23 25 333 18 17 335 334 51 9 354 359 36 7 0 360 352
72 79 72 75 78 101 117 114 106 95 80 357 35 10 5 338 4 294 262 355 333 323 89 54 46 6 11 358 2 13 23 30 57 56 60 100 356 0 343 20 11 353 353 351
82 82 86 81 89 104 114 105 101 98 95 12 9 16 5 346 349 357 317 5 16 50 55 50 51 39 357 358 350 2 30 43 59 40 68 35 347 340 335 164 18 351 349 350
102 93 89 86 107 113 107 103 98 98 87 56 54 38 4 352 351 260 314 339 4 28 45 47 47 45 349 17 9 342 356 5 42 43 73 50 331 350 29 47 321 330 345 353
107 101 97 106 122 103 111 96 92 89 87 71 60 48 34 21 16 12 331 26 11 29 59 63 37 43 36 45 31 356 19 17 20 32 61 41 348 350 32 327 335 342 353 359
129 127 115 104 123 115 95 98 93 85 83 77 66 61 54 44 36 30 36 87 58 46 105 71 92 61 44 31 49 3 50 34 48 46 86 334 356 1 29 20 5 358 5 7
125 122 114 137 150 119 119 110 107 97 81 64 63 58 56 49 47 58 66 39 53 63 76 110 107 79 96 50 41 78 56 49 64 119 20 349 14 27 30 28 25 19 15 17
122 131 124 127 130 124 134 97 110 101 76 77 64 67 60 58 59 66 70 77 74 73 73 63 73 92 53 64 81 59 352 353 57 77 35 26 23 18 14 23 26 27 30 26
130 137 148 151 155 123 130 112 129 356 105 121 96 74 72 70 73 78 84 85 76 68 69 65 62 67 94 90 102 49 6 37 71 73 312 277 348 0 3 15 25 27 26 27
144 143 145 149 148 136 111 82 96 109 113 88 74 81 85 79 64 72 71 72 73 72 59 64 54 36 89 83 82 3 24 24 23 3 12 20 27 13 13 14 20 25 30 29
153 150 151 157 164 171 77 139 151 141 103 97 98 100 90 106 66 54 56 62 70 71 67 65 66 38 50 60 82 351 50 58 58 54 38 30 35 33 24 26 24 24 29 30
155 158 165 169 173 189 337 146 164 158 114 100 115 127 133 122 119 68 23 30 47 43 90 99 101 94 66 110 238 302 88 46 56 57 43 27 23 35 44 40 27 23 28 28
152 142 144 142 160 145 146 152 167 191 168 133 120 147 199 149 119 56 22 30 63 10 75 78 155 158 192 174 186 187 177 81 23 14 9 5 16 17 18 23 20 22 21 22
155 147 136 143 147 138 138 139 177 190 190 162 132 147 129 150 128 66 17 33 58 91 45 315 266 236 177 176 178 173 180 176 121 52 359 354 1 360 3 15 17 18 16 14
156 166 130 141 148 149 158 156 122 234 166 186 147 159 133 141 118 135 65 132 41 107 117 305 264 242 206 189 195 189 196 196 175 242 338 348 4 359 8 8 16 18 10 13
159 144 125 138 158 123 120 331 297 225 226 174 152 144 125 131 129 112 147 96 108 236 338 356 247 240 179 186 187 195 211 220 221 272 333 343 1 16 9 9 12 8 9 10
144 150 158 154 135 64 166 197 223 239 181 172 156 129 134 125 135 91 125 132 241 297 24 244 233 183 179 189 194 201 218 227 236 251 294 339 340 346 355 9 11 8 8 8
147 156 216 181 207 233 190 182 177 172 172 163 148 119 118 124 122 135 136 137 148 310 238 233 221 190 179 184 191 202 213 225 232 236 245 302 311 344 343 4 12 14 10 4
165 173 201 205 220 196 178 180 165 161 158 154 127 94 121 111 111 204 122 131 245 229 235 238 192 178 184 191 196 202 213 224 225 234 241 288 291 319 331 335 357 4 7 11
207 213 179 180 180 213 198 186 173 163 157 152 141 127 117 172 147 172 207 192 225 238 218 211 171 176 184 193 202 207 217 224 220 234 253 279 282 296 312 313 340 355 356 358
217 224 209 195 208 212 199 188 179 169 167 172 147 159 190 124 171 217 193 218 232 232 194 178 183 190 189 191 203 214 218 219 226 247 266 283 277 279 291 297 313 334 340 345